Location: Hardenberg
(52.5670°N, 6.6170°E)
Time: 06:58:54
(UTC+02:00)

ISS - Pass Details

Date: 25 May 2021
Orbit: 417 x 422 km, 51.6° (Epoch: 12 June)

Event Time Altitude Azimuth Distance (km) Brightness Sun altitude
Rises 00:34:53 0° 281° (W) 2,370 0.4 -15.5°
Reaches altitude 10° 00:37:17 10° 265° (W) 1,504 -0.9 -15.6°
Enters shadow 00:39:33 21° 224° (SW) 996 -2.2 -15.7°
